Find Local Weather

World > North America > United States > New Jersey

Town Bank, New Jersey Regional Weather

Lat: 38.99N, Lon: 74.95W
Wx Zone: NJZ023
Feedback

Town Bank, NJ Regional Weather

Expires:201905202300;;189383
ASUS41 KPHI 202212
RWRPHI

REGIONAL WEATHER ROUNDUP
NATIONAL WEATHER SERVICE MOUNT HOLLY NJ
600 PM EDT MON MAY 20 2019

NOTE:  "FAIR" INDICATES FEW OR NO CLOUDS BELOW 12,000 FEET WITH NO
SIGNIFICANT WEATHER AND/OR OBSTRUCTIONS TO VISIBILITY.

 * = STATION DOES NOT REPORT PRECIPITATION (E.G. RAIN, SNOW, ETC.) 
        OR FOG.


NJZ015>026-202300-
SOUTHERN NEW JERSEY
  
CITY           SKY/WX    TMP DP  RH WIND       PRES   REMARKS
POMONA         FAIR      87  64  46 SW13G26   29.75S                  
WILDWOOD*      FAIR      85  67  54 S9        29.78S                  
MILLVILLE      FAIR      85  65  51 SW9G16    29.75S                  
WRIGHTSTOWN    FAIR      85  64  49 W15       29.71R                  
MOUNT HOLLY    PTSUNNY   85  63  47 SW10G22   29.73R                  
TRENTON        FAIR      81  64  56 W9        29.72S                  

$$

SKY/WX - Weather  TMP - Temperature  DP - Dew Point  RH - Relative Humidity
WIND - Wind Direction/Speed PRES - Barometric Pressure VSB - Visibility
WCI - Wind Chill Index E13G22 Wind - East Wind 13 mph/Gusts of 22 mph